Regional Weather Roundup
Issued by NWS

Home | Current Version | Previous Version | Graphics & Text | Print | Product List | Glossary On
Versions: 1 2 3 4 5 6 7 8 9 10 11 12 13 14 15 16 17 18 19 20 21 22 23 24 25 26 27 28 29 30 31 32 33 34 35 36 37 38 39 40 41 42 43 44 45 46 47 48 49 50
000
ASUS43 KLSX 262207
RWRMO

WEATHER SUMMARY FOR MISSOURI
NATIONAL WEATHER SERVICE SPRINGFIELD MO
500 PM CDT THU MAR 26 2015

NOTE: "FAIR" INDICATES FEW OR NO CLOUDS BELOW 12,000 FEET WITH NO
       SIGNIFICANT WEATHER AND/OR OBSTRUCTIONS TO VISIBILITY.
       CURRENT SKY AND/OR WEATHER CONDITIONS ARE NOT AVAILABLE FOR
       CHILLICOTHE AND FARMINGTON.

MOZ001>031-035>038-043-044-053-054-262300-
...NORTHERN AND WESTERN MISSOURI...

CITY           SKY/WX    TMP DP  RH WIND       PRES   REMARKS
KANSAS CTY INT MOSUNNY   49  28  44 NW7       30.09F
KANSAS C DTWN  SUNNY     51  25  36 CALM      30.09F
LEE`S SUMMIT   SUNNY     51  26  37 N8        30.09F
ST JOSEPH      SUNNY     50  27  40 NW6       30.09F
CHILLICOTHE      N/A     51  27  39 NW12G17   30.09F
KIRKSVILLE     SUNNY     50  24  36 NW13G20   30.05F

$$
MOZ066>068-077>081-088>096-101>105-262300-
...SOUTHWEST MISSOURI...

CITY           SKY/WX    TMP DP  RH WIND       PRES   REMARKS
SPRINGFIELD    SUNNY     52  29  41 NW15      30.06F
JOPLIN         SUNNY     53  30  41 N13       30.11S

$$
MOZ032>034-039>042-045>050-055>058-069>072-262300-
...CENTRAL MISSOURI...

CITY           SKY/WX    TMP DP  RH WIND       PRES   REMARKS
COLUMBIA       SUNNY     50  29  44 NW14      30.07S
JEFFERSON CITY SUNNY     50  28  42 W15G21    30.06F
ROLLA          SUNNY     49  28  44 MISG      30.03F
SEDALIA        MOSUNNY   50  30  46 NW8       30.10F
WHITEMAN AFB   SUNNY     50  27  40 NW9       30.08F
WARRENSBURG    SUNNY     50  27  40 NW9       30.09F
OSAGE BEACH    SUNNY     52  27  37 NW9G17    30.06F

$$
MOZ051-052-059>065-262300-
...EAST CENTRAL MISSOURI...

CITY           SKY/WX    TMP DP  RH WIND       PRES   REMARKS
ST LOUIS INTL  MOSUNNY   50  29  44 N17       30.04F
SPIRIT OF STL  MOSUNNY   50  28  42 NW13      30.04F
ST CHARLES     SUNNY     50  28  42 NW14      30.04F

$$
MOZ072>076-082>087-097>100-106>115-262300-
...SOUTH CENTRAL AND SOUTHEAST MISSOURI...

CITY           SKY/WX    TMP DP  RH WIND       PRES   REMARKS
CAPE GIRARDEAU PTSUNNY   47  35  63 N13       30.02F
FARMINGTON     SUNNY     48  27  43 N13       30.05S
POPLAR BLUFF   MOSUNNY   51  31  46 N15       30.01F
WEST PLAINS    SUNNY     52  28  39 MISG      30.02F

$$



USA.gov is the U.S. government's official web portal to all federal, state and local government web resources and services.